This demonstration page uses our WeatherBlox Daily Observations layout. Learn more.

Left ArrowRight Arrow

Hourly Observations for May 28, 2015

Temp ( °F °C ) Dew Point ( °F °C ) Humidity (%) Winds ( mph kmh ) Pressure ( in mb ) Visibility ( mi km ) Precip ( " mm )
12:51 am 00:51 Clear 69 20.6 24 -4.4 18 18 NW 8 13 29.81 1009 10 16 0.00 0.00
1:51 am 01:51 Clear 71 21.7 25 -3.9 18 18 NW 9 15 29.80 1009 10 16 0.00 0.00
2:51 am 02:51 Clear 66 18.9 24 -4.4 20 20 NW 7 11 29.81 1010 10 16 0.00 0.00
3:51 am 03:51 Clear 60 15.6 25 -3.9 26 26 ESE 6 9 29.84 1011 10 16 0.00 0.00
4:51 am 04:51 Clear 57 13.9 22 -5.6 26 26 E 7 11 29.86 1011 10 16 0.00 0.00
5:51 am 05:51 Sunny 59 15 23 -5 25 25 SE 6 9 29.88 1012 10 16 0.00 0.00
6:51 am 06:51 Sunny 67 19.4 24 -4.4 20 20 Calm 29.88 1012 10 16 0.00 0.00
7:51 am 07:51 Sunny 73 22.8 26 -3.3 17 17 Calm 29.88 1012 10 16 0.00 0.00
8:51 am 08:51 Sunny 77 25 27 -2.8 16 16 Calm 29.88 1012 10 16 0.00 0.00
9:51 am 09:51 Sunny 82 27.8 28 -2.2 14 14 VRB 3 6 29.87 1011 10 16 0.00 0.00
10:51 am 10:51 Sunny 86 30 26 -3.3 11 11 NNW 5 7 29.85 1011 10 16 0.00 0.00
11:51 am 11:51 Sunny 88 31.1 24 -4.4 10 10 SSW 8 13 29.82 1010 10 16 0.00 0.00
12:51 pm 12:51 Sunny 90 32.2 24 -4.4 9 9 VRB 7 11 29.80 1009 10 16 0.00 0.00
1:51 pm 13:51 Partly Cloudy 93 33.9 24 -4.4 8 8 W 9 15 29.76 1008 10 16 0.00 0.00
2:51 pm 14:51 Mostly Cloudy 93 33.9 23 -5 8 8 WSW 9 15 29.75 1007 10 16 0.00 0.00
3:51 pm 15:51 Mostly Cloudy 94 34.4 22 -5.6 7 7 VRB 5 7 29.74 1007 10 16 0.00 0.00
4:51 pm 16:51 Mostly Cloudy 94 34.4 22 -5.6 7 7 WNW 6 9 29.72 1007 10 16 0.00 0.00
5:51 pm 17:51 Mostly Cloudy 94 34.4 17 -8.3 6 6 NNW 16 26 29.72 1006 10 16 0.00 0.03
6:51 pm 18:51 Mostly Cloudy 90 32.2 19 -7.2 7 7 NW 17 28 29.72 1007 10 16 0.00 0.03
7:51 pm 19:51 Partly Cloudy 85 29.4 25 -3.9 11 11 WNW 15 24 29.74 1007 10 16 0.00 0.00
8:51 pm 20:51 Clear 81 27.2 24 -4.4 12 12 WNW 13 20 29.77 1008 10 16 0.00 0.00
9:51 pm 21:51 Clear 78 25.6 22 -5.6 12 12 NW 12 19 29.78 1009 10 16 0.00 0.00
10:51 pm 22:51 Clear 75 23.9 22 -5.6 14 14 WNW 12 19 29.78 1009 10 16 0.00 0.00
11:51 pm 23:51 Clear 74 23.3 23 -5 15 15 NW 14 22 29.79 1009 10 16 0.00 0.00

Powered by AerisWeather